Theta_e
309 309 309 309 310 310 312 314 314 313 313 313 312 311 311 311 312 314 315 315 316 319 318 319 323 326 329 341 339 342 345 349 348 348 348 345 343 342 341 339 338 339 336 336 337
311 310 310 310 309 310 311 313 314 315 316 316 316 314 312 311 312 314 315 315 317 319 318 318 326 328 327 344 346 345 344 347 347 344 343 344 346 344 340 340 339 339 337 336 339
315 314 313 312 311 310 310 312 314 315 316 316 316 316 313 312 317 326 319 315 317 319 318 318 324 326 327 347 347 349 348 344 342 344 344 343 346 346 340 340 339 340 339 339 339
319 318 317 317 315 312 310 310 313 315 316 316 317 317 314 313 332 329 323 320 318 317 316 316 324 325 326 347 347 351 348 346 344 346 346 344 344 346 343 340 339 339 340 340 340
319 320 320 320 319 315 311 310 312 315 316 318 318 318 314 315 325 327 327 324 323 318 315 321 325 324 325 345 346 348 349 345 348 347 341 343 344 347 344 341 340 340 341 341 341
314 314 318 320 321 319 314 311 312 315 316 319 318 316 314 322 328 326 323 318 320 316 315 323 324 322 322 335 345 346 349 347 347 347 343 345 345 345 346 341 341 341 342 341 342
316 315 314 316 320 321 315 311 312 315 318 319 316 313 313 324 328 326 317 317 315 315 318 322 319 319 320 329 347 348 349 348 345 342 341 344 348 347 346 341 340 341 341 341 341
315 316 316 314 316 321 317 312 314 318 319 318 316 318 314 328 327 326 323 320 318 319 320 320 320 319 323 329 348 350 348 348 345 342 347 343 345 346 345 344 341 339 339 339 340
317 316 315 316 314 320 316 314 320 320 319 319 318 327 327 328 327 324 325 324 323 321 320 320 319 319 322 325 331 343 350 351 346 343 348 342 343 343 343 344 344 341 341 340 339
319 318 317 315 315 319 316 320 324 324 321 321 321 322 326 326 325 324 324 325 325 324 321 320 318 314 314 322 333 336 348 352 348 348 344 348 346 343 342 343 344 344 345 343 341
321 320 318 317 315 317 318 322 323 324 322 323 323 323 323 325 324 323 325 326 324 322 317 317 313 313 316 319 325 330 331 339 348 347 351 352 348 346 343 341 343 344 344 342 342
319 320 321 319 316 317 317 319 322 322 321 323 322 323 323 324 325 323 323 323 322 321 316 314 314 313 315 317 320 322 324 339 352 349 351 351 351 346 342 341 340 342 344 344 342
318 319 320 321 317 318 314 320 323 321 319 322 323 324 325 325 325 325 322 322 321 320 318 316 317 316 316 316 317 317 320 344 350 354 348 348 349 347 345 342 340 339 342 343 342
318 318 318 320 318 317 319 322 321 321 317 321 324 325 326 326 324 325 323 322 320 320 318 317 318 319 317 316 316 315 320 335 355 355 352 345 346 334 345 344 341 340 341 344 343
319 319 319 317 319 318 318 321 321 321 324 326 326 326 325 324 323 322 323 323 319 320 320 320 322 321 318 318 318 319 324 346 352 348 334 340 341 335 343 347 343 341 341 343 342
320 320 319 318 319 319 319 321 322 318 324 326 326 322 320 322 322 322 322 323 322 320 319 319 322 321 320 322 322 322 320 318 321 323 326 326 339 330 346 347 345 342 341 344 346
320 319 319 317 318 319 319 320 316 321 321 327 324 321 320 321 322 320 319 319 319 320 321 321 322 321 323 324 321 318 317 319 322 322 324 326 336 331 330 340 343 344 343 343 345
319 318 318 318 319 318 318 314 319 319 319 320 321 321 321 321 321 319 319 318 317 318 318 320 323 322 323 322 320 320 318 318 324 323 325 325 332 340 337 340 348 347 345 345 345
319 319 319 323 320 319 321 314 314 317 319 317 317 322 322 321 322 320 318 317 317 316 319 319 323 322 321 320 320 320 319 317 316 319 322 326 339 334 339 341 345 347 347 345 345
319 317 322 322 319 318 318 315 317 318 318 316 318 317 318 320 321 319 318 319 320 318 318 321 323 322 322 321 320 319 318 325 321 328 329 337 343 337 341 343 342 342 344 347 346
317 318 322 321 321 320 318 318 320 321 320 319 318 318 317 318 317 318 320 322 320 321 319 320 320 324 321 321 320 321 321 319 321 324 330 337 339 334 336 336 341 340 345 345 345
316 313 322 321 319 314 316 317 319 318 321 319 317 316 316 318 317 319 320 323 324 321 321 319 316 321 324 321 317 321 322 320 320 323 325 326 330 328 333 336 338 342 342 346 345
317 319 323 322 319 313 316 319 319 319 318 318 318 318 318 317 319 320 325 324 324 321 320 319 317 320 321 319 317 318 321 322 318 321 328 330 330 331 337 338 338 342 342 342 346
318 318 323 322 320 320 320 320 321 322 322 322 318 319 322 317 315 320 325 323 322 322 321 320 314 318 320 321 316 319 321 321 320 323 324 325 330 332 340 341 342 343 342 342 341
320 319 320 319 321 318 318 319 322 322 321 321 323 324 324 325 318 321 322 321 320 323 316 315 317 318 318 318 317 320 322 323 320 319 323 324 332 331 331 336 343 343 344 342 340
320 320 320 319 319 318 318 320 321 322 322 321 322 322 324 327 320 319 320 319 319 319 316 310 314 316 319 319 323 324 326 325 326 323 326 327 330 329 333 333 337 341 343 343 342
319 318 319 319 317 319 318 321 322 321 321 321 321 322 326 327 325 325 325 319 319 317 315 314 314 316 321 323 322 323 324 326 326 325 325 326 324 333 333 331 332 338 340 341 343
Wind_Speed
12 11 11 11 10 9 9 9 9 9 9 9 9 8 8 7 9 11 11 7 10 7 2 7 8 7 4 6 6 7 4 6 7 10 2 15 11 17 6 21 15 7 23 32 31
12 12 12 12 11 10 9 9 9 9 10 10 10 10 9 8 8 11 5 9 9 9 6 5 10 7 4 7 4 4 3 8 7 7 3 0 5 1 9 18 7 18 23 31 33
12 12 12 12 12 11 10 9 9 10 10 11 11 11 9 7 3 2 3 10 10 9 7 7 9 3 4 7 6 4 4 4 6 6 0 2 7 5 23 6 25 34 34 34 35
14 14 14 14 13 13 12 11 10 10 11 11 11 10 8 3 4 3 4 6 9 9 8 7 5 4 4 6 8 1 10 6 5 13 5 3 3 2 15 10 28 30 32 36 36
15 15 15 15 14 13 13 12 11 10 11 12 10 8 6 2 1 1 3 8 11 10 9 9 5 3 2 5 7 3 3 10 4 15 15 15 3 2 4 20 27 32 34 36 35
17 17 16 16 16 14 13 12 11 11 11 11 9 5 3 2 2 3 3 6 11 11 10 11 2 5 8 5 9 7 9 7 6 11 12 8 3 3 5 19 29 35 37 35 33
19 19 18 18 17 16 14 12 11 11 11 8 6 3 5 3 3 1 4 4 7 9 9 6 4 6 6 2 10 17 5 4 3 1 6 12 2 4 10 24 27 33 32 33 35
20 20 20 19 19 17 14 12 11 11 7 4 4 3 4 4 6 4 3 4 7 7 5 2 6 9 4 1 7 3 4 2 4 2 4 9 5 5 13 18 23 25 27 28 32
19 19 20 20 19 17 13 11 10 8 4 4 3 4 4 7 12 5 7 3 2 5 6 5 5 3 0 5 4 2 3 4 3 12 3 6 5 8 17 16 17 23 24 23 32
21 20 20 19 19 16 11 10 10 6 4 6 7 6 3 2 6 11 10 5 7 6 5 5 2 2 3 3 6 6 4 3 5 6 4 6 9 5 18 19 20 20 21 24 32
22 22 21 20 19 14 5 6 8 3 11 14 21 18 23 10 4 11 10 11 9 2 4 1 3 7 10 6 3 2 3 6 7 8 6 11 6 8 16 17 18 17 16 25 31
23 23 22 20 20 12 4 5 7 11 12 19 21 24 22 17 5 12 13 8 5 4 4 5 5 11 2 4 4 5 6 4 2 8 5 4 12 3 11 14 20 22 20 22 31
24 24 23 20 18 7 6 3 10 17 5 12 10 13 13 13 12 17 18 14 3 3 4 6 7 4 5 5 4 4 5 6 7 4 2 4 7 6 5 13 12 18 21 21 30
23 25 25 22 10 10 6 2 11 6 4 6 4 6 13 7 5 24 22 15 2 8 5 6 6 5 5 7 5 8 8 11 7 6 4 6 4 6 6 8 9 22 27 27 22
25 26 26 23 20 14 7 8 8 1 4 2 4 5 10 11 3 11 24 19 8 6 4 7 5 4 6 11 8 9 6 11 8 7 3 0 3 6 2 6 12 21 26 34 29
25 28 26 24 20 9 5 4 1 5 6 4 9 6 6 6 4 4 10 10 4 5 2 8 7 5 9 5 8 6 7 9 6 4 2 6 6 6 4 6 5 18 25 32 33
27 28 27 24 21 11 7 1 4 3 5 3 5 4 7 6 2 5 7 6 5 4 3 4 5 4 4 4 4 7 7 3 2 2 6 2 4 8 6 6 8 13 28 30 33
29 30 25 22 17 11 6 4 3 4 6 5 4 3 8 7 6 7 5 4 4 4 2 4 5 6 3 5 7 2 7 6 5 4 4 1 2 5 6 11 9 3 15 24 27
29 30 18 14 8 16 11 3 8 6 4 7 8 4 3 2 4 3 8 6 8 10 8 5 6 4 5 5 8 3 2 3 7 1 2 2 3 6 7 8 12 6 8 17 27
30 27 14 7 11 20 4 5 4 2 5 4 2 4 2 1 1 6 8 6 6 11 6 5 2 3 2 6 5 7 7 4 3 2 3 3 2 4 3 5 7 9 4 10 20
22 10 11 11 13 8 4 6 4 6 11 6 2 4 3 2 5 6 9 8 6 5 8 6 4 5 3 3 5 2 2 6 5 4 5 1 5 5 6 4 1 7 10 7 14
10 3 5 9 4 2 3 4 4 6 20 6 5 9 6 3 6 6 11 7 14 13 10 5 5 3 3 2 3 2 3 4 5 5 1 3 5 4 6 6 7 2 4 8 5
15 5 3 9 0 3 5 4 3 3 4 4 4 4 5 5 3 6 6 1 16 6 9 7 2 3 6 6 5 6 1 4 5 3 5 6 5 1 5 5 8 9 4 6 7
6 4 4 3 7 2 3 4 4 10 7 9 7 1 5 4 9 6 3 3 4 6 12 9 4 6 6 6 4 1 2 3 5 3 4 5 4 3 2 4 3 8 8 7 7
5 2 2 3 2 3 3 2 3 5 6 11 4 6 5 5 3 7 2 3 7 5 4 5 4 4 3 3 2 2 3 2 5 5 5 4 8 5 7 7 5 5 8 10 8
5 5 7 7 8 4 3 1 3 3 2 4 2 15 9 6 5 6 4 2 5 2 4 4 1 2 1 1 2 2 2 7 4 5 5 5 1 4 6 7 8 9 8 10 11
4 4 5 6 4 2 3 2 6 7 8 10 6 9 12 6 19 27 30 17 16 10 5 5 6 3 1 2 4 3 3 4 3 2 5 3 6 5 6 11 12 10 6 6 7
Wind_Direction
5 2 0 358 357 356 356 355 353 351 349 345 337 325 310 292 275 265 255 223 195 181 160 155 156 143 132 144 126 112 87 185 198 220 67 354 128 166 162 137 151 208 168 166 157
1 359 357 353 351 348 345 344 344 344 346 344 339 331 321 311 284 270 236 205 187 180 172 163 145 152 182 160 146 95 144 202 204 163 129 272 16 95 127 150 104 123 157 164 167
358 355 352 349 346 342 338 335 335 335 338 339 335 331 326 324 325 69 202 196 187 199 189 177 170 182 208 174 176 145 195 189 228 188 154 339 33 331 153 179 159 155 167 172 177
355 352 349 346 344 340 334 327 325 327 329 332 330 329 326 320 147 100 73 168 194 203 196 179 196 171 209 183 191 209 239 234 229 199 176 147 5 335 175 178 174 169 165 175 183
355 350 346 343 342 339 333 324 320 323 326 329 327 326 327 269 220 42 322 188 197 205 191 177 179 197 222 190 163 221 163 184 263 170 166 161 227 181 97 156 173 169 174 182 186
356 349 344 341 339 337 333 322 315 318 324 324 321 316 285 280 121 358 287 196 190 192 193 187 159 310 285 212 171 199 143 174 178 164 163 155 174 168 185 156 163 170 182 186 190
356 352 346 340 336 334 332 323 317 317 321 322 324 294 243 189 152 335 63 175 176 181 173 183 306 311 311 279 170 132 107 72 58 263 167 146 172 203 163 166 169 176 185 198 198
353 350 347 342 335 332 331 319 316 316 316 323 345 329 234 178 216 222 191 161 161 162 185 226 310 285 231 19 105 108 81 169 200 126 235 155 251 212 174 171 182 180 192 188 198
348 347 345 341 334 331 332 322 323 319 304 293 305 324 262 223 221 162 219 206 244 252 225 261 285 238 188 96 51 330 195 230 278 200 134 171 230 207 192 185 185 189 194 202 205
343 341 341 339 332 331 334 333 330 304 305 304 272 301 252 347 279 217 204 230 260 266 247 225 201 82 48 93 196 193 208 223 234 181 190 223 235 160 184 187 199 194 207 198 204
340 337 336 335 327 327 333 339 355 14 310 269 275 269 285 313 238 171 188 228 232 158 166 25 81 220 217 172 153 147 246 247 231 169 151 221 240 219 175 200 218 201 195 185 190
341 336 333 333 325 325 314 53 55 334 295 289 269 265 263 259 277 228 198 198 165 176 120 20 241 238 230 178 183 230 252 254 319 161 152 199 251 233 172 208 212 212 199 187 186
345 339 333 332 326 321 304 27 339 335 255 294 248 232 233 215 225 246 199 206 163 153 165 167 235 106 185 256 205 232 217 203 207 137 206 91 312 257 212 208 213 226 215 197 190
340 339 336 334 324 326 322 293 335 320 43 275 227 221 211 210 242 227 200 189 192 203 177 226 268 224 215 250 139 266 237 213 149 121 205 144 263 282 207 223 204 216 218 213 198
329 330 330 331 312 309 274 291 337 155 343 188 193 160 181 175 206 207 203 189 170 196 120 249 292 247 191 226 156 241 241 179 157 148 100 7 32 270 112 245 223 220 216 216 209
323 327 320 321 304 301 253 260 46 42 257 289 184 170 123 206 231 135 168 179 217 171 224 240 257 205 215 219 170 150 70 41 55 72 334 225 166 282 205 219 246 221 221 220 221
320 321 316 303 295 283 279 210 57 164 323 241 214 152 175 185 229 164 172 177 175 111 284 315 248 269 198 134 40 76 64 18 29 13 228 186 106 244 272 265 244 215 208 212 215
322 321 314 303 275 246 195 65 185 235 258 308 10 108 185 169 218 185 130 199 219 114 106 164 308 184 182 168 177 175 146 152 177 204 248 54 226 265 295 321 358 265 199 201 213
321 324 331 333 223 186 171 128 205 208 327 347 326 158 228 278 200 153 193 203 203 164 171 159 267 305 202 159 134 186 106 195 100 9 49 261 296 330 346 9 36 72 177 204 217
330 330 351 338 163 163 102 224 241 249 337 353 355 8 107 24 293 183 189 210 205 191 161 194 301 265 88 95 47 150 163 75 11 155 257 304 271 225 317 3 359 347 322 227 216
336 344 15 106 133 162 157 232 274 313 356 345 341 308 249 289 214 222 223 223 204 162 147 138 119 310 46 74 181 3 111 53 115 134 160 150 266 213 198 230 307 333 357 11 236
350 4 111 133 43 23 166 209 311 338 310 267 216 222 231 282 271 230 208 235 178 143 154 180 148 139 179 285 316 137 134 121 135 240 135 160 259 269 207 188 138 128 42 52 114
340 308 183 245 296 339 310 300 277 309 274 264 283 241 258 251 298 233 195 182 152 128 163 182 8 64 349 7 8 67 64 124 121 90 192 139 251 315 313 161 172 142 123 130 133
343 355 341 81 87 51 340 274 331 320 291 335 260 322 338 268 205 272 233 108 142 103 118 104 115 145 181 192 163 298 355 63 116 119 169 215 208 206 255 231 195 135 146 160 161
347 323 33 310 319 326 260 272 298 353 333 7 359 42 332 288 285 195 235 74 27 101 62 102 127 155 158 157 191 189 267 200 177 181 156 223 183 195 208 214 227 184 177 173 190
359 356 342 298 299 349 326 319 309 347 282 286 360 324 308 250 340 316 167 141 174 15 78 26 130 107 103 232 168 217 121 95 86 123 99 124 95 188 225 212 229 220 198 191 191
318 301 303 294 331 15 242 11 306 292 265 241 331 317 299 250 315 286 267 274 168 149 137 121 135 105 227 340 92 5 237 119 125 86 141 157 223 165 218 228 232 231 236 245 228